Location: Bílinka
(49.3579°N, 14.3767°E)
Time: 20:43:48
(UTC+00:00)

PSLV R/B - Pass Details

Date: 29 March 2025
Orbit: 410 x 442 km, 97.7° (Epoch: 28 April)

Event Time Altitude Azimuth Distance (km) Brightness Sun altitude
Exits shadow 19:31:48 26° 40° (NE) 918 4.8 -19.5°
Drops below altitude 10° 19:33:53 10° 7° (N) 1,555 6.4 -19.8°
Sets 19:36:02 0° 356° (N) 2,419 7.6 -20.1°
